SCP
0 0 0 0 0 0 0 0 0 0 0 0 0 0 0 0 0 0 0 0 0 0 0 0 0 0 0 0 0 0 0 0 0 0 0 0 0 0 0 0 0 0 0
0 0 0 0 0 0 0 0 0 0 0 0 0 0 0 0 0 0 0 0 0 0 0 0 0 0 0 0 0 0 0 0 0 0 0 0 0 0 0 0 0 0 0
0 0 0 0 0 0 0 0 0 0 0 0 0 0 0 0 0 0 0 0 0 0 0 0 0 0 0 0 0 0 0 0 0 0 0 0 0 0 0 0 0 0 0
0 0 0 0 0 0 0 0 0 0 0 0 0 0 0 0 0 0 0 0 0 0 0 0 0 0 0 0 0 0 0 0 0 0 0 0 0 0 0 0 0 0 0
0 0 0 0 0 0 0 0 0 0 0 0 0 0 0 0 0 0 0 0 0 0 0 0 0 0 0 0 0 0 0 0 0 0 0 0 0 0 0 0 0 0 0
0 0 0 0 0 0 0 0 0 0 0 0 0 0 0 0 0 0 0 0 0 0 0 0 0 0 0 0 0 0 0 0 0 0 0 0 0 0 0 0 0 0 0
0 0 0 0 0 0 0 0 0 0 0 0 0 0 0 0 0 0 0 0 0 0 0 0 0 0 0 0 0 0 0 0 0 0 0 0 0 0 0 0 0 0 0
0 0 0 0 0 0 0 0 0 0 0 0 0 0 0 0 0 0 0 0 0 0 0 0 0 0 0 0 0 0 0 0 0 0 0 0 0 0 0 0 0 0 0
0 0 0 0 0 0 0 0 0 0 0 0 0 0 0 0 0 0 0 0 0 0 0 0 0 0 0 0 0 0 0 0 0 0 0 0 0 0 0 0 0 0 0
0 0 0 0 0 0 0 0 0 0 0 0 0 0 0 0 0 0 0 0 0 0 0 0 0 0 0 0 0 0 0 0 0 0 0 0 0 0 0 0 0 0 0
0 0 0 0 0 0 0 0 0 0 0 0 0 0 0 0 0 0 0 0 0 0 0 0 0 0 0 0 0 0 0 0 0 0 0 0 0 0 0 0 0 0 0
0 0 0 0 0 0 0 0 0 0 0 0 0 0 0 0 0 0 0 0 0 0 0 0 0 0 0 0 0 0 0 0 0 0 0 0 0 0 0 0 0 0 0
0 0 0 0 0 0 0 0 0 0 0 0 0 0 0 0 0 0 0 0 0 0 0 0 0 0 0 0 0 0 0 0 0 0 0 0 0 0 0 0 0 0 0
0 0 0 0 0 0 0 0 0 0 0 0 0 0 0 0 0 0 0 0 0 0 0 0 0 0 0 0 0 0 0 0 0 0 0 0 0 0 0 0 0 0 0
0 0 0 0 0 0 0 0 0 0 0 0 0 0 0 0 0 0 0 0 0 0 0 0 0 0 0 0 0 0 0 0 0 0 0 0 0 0 0 0 0 0 0
0 0 0 0 0 0 0 0 0 0 0 0 0 0 0 0 0 0 0 0 0 0 0 0 0 0 0 0 0 0 0 0 0 0 0 0 0 0 0 0 0 0 0
0 0 0 0 0 0 0 0 0 0 0 0 0 0 0 0 0 0 0 0 0 0 0 0 0 0 0 0 0 0 0 0 0 0 0 0 0 0 0 0 0 0 0
0 0 0 0 0 0 0 0 0 0 0 0 0 0 0 0 0 0 0 0 0 0 0 0 0 0 0 0 0 0 0 0 0 0 0 0 0 0 0 0 0 0 0
0 0 0 0 0 0 0 0 0 0 0 0 0 0 0 0 0 0 0 0 0 0 0 0 0 0 0 0 0 0 0 0 0 0 0 0 0 0 0 0 0 0 0
0 0 0 0 0 0 0 0 0 0 0 0 0 0 0 0 0 0 0 0 0 0 0 0 0 0 0 0 0 0 0 0 0 0 0 0 0 0 0 0 0 0 0
0 0 0 0 0 0 0 0 0 0 0 0 0 0 0 0 0 0 0 0 0 0 0 0 0 0 0 0 0 0 0 0 0 0 0 0 0 0 0 0 0 0 0
0 0 0 0 0 0 0 0 0 0 0 0 0 0 0 0 0 0 0 0 0 0 0 0 0 0 0 0 0 0 0 0 0 0 0 0 0 0 0 0 0 0 0
0 0 0 0 0 0 0 0 0 0 0 0 0 0 0 0 0 0 0 0 0 0 0 0 0 0 0 0 0 0 0 0 0 0 0 0 0 0 0 0 0 0 0
0 0 0 0 0 0 0 0 0 0 0 0 0 0 0 0 0 0 0 0 0 0 0 0 0 0 0 0 0 0 0 0 0 0 0 0 0 0 0 0 0 0 0
0 0 0 0 0 0 0 0 0 0 0 0 0 0 0 0 0 0 0 0 0 0 0 0 0 0 0 0 0 0 0 0 0 0 0 0 0 0 0 0 0 0 0
0 0 0 0 0 0 0 0 0 0 0 0 0 0 0 0 0 0 0 0 0 0 0 0 0 0 0 0 0 0 0 0 0 0 0 0 0 0 0 0 0 0 0
Wind_Speed_500mb
62 61 61 59 56 59 58 61 62 65 70 79 84 79 76 73 70 72 70 68 65 59 53 47 40 31 24 18 13 14 20 21 18 20 16 13 16 21 26 33 40 44 47
54 56 57 56 55 60 64 66 68 68 72 77 78 75 78 75 75 75 73 68 63 59 53 45 36 27 19 9 12 25 23 20 18 17 17 17 20 26 32 39 46 49 53
53 56 58 59 58 63 66 69 68 70 71 74 79 77 78 76 77 76 71 67 62 55 48 41 33 23 13 13 21 26 24 22 20 18 19 21 28 33 38 46 52 56 58
55 60 63 61 60 62 66 69 68 68 68 72 79 84 80 80 82 79 74 70 63 55 48 40 30 16 15 17 30 28 26 24 23 23 24 26 33 39 44 52 57 58 62
63 66 67 61 60 64 72 74 72 73 74 78 87 89 84 87 83 77 70 62 59 58 54 44 27 15 25 34 32 30 28 26 26 29 29 32 37 42 47 54 59 60 66
65 69 69 67 65 68 74 77 75 76 77 80 86 86 89 88 83 74 67 63 61 56 51 40 23 26 32 42 38 34 32 30 32 35 35 38 40 44 50 55 55 56 69
66 70 74 73 71 69 75 78 76 75 76 79 85 88 89 87 78 70 66 64 61 59 50 40 29 43 41 47 42 39 38 37 39 41 43 42 44 46 53 52 50 60 67
68 72 75 76 77 72 76 80 78 77 77 79 86 90 88 82 76 71 71 67 67 60 51 33 50 40 47 46 43 43 41 45 45 44 47 49 50 51 50 53 60 69 73
71 73 74 77 79 80 76 81 81 79 76 80 86 85 86 84 79 79 78 74 69 62 49 45 54 43 49 47 46 44 47 49 48 48 50 54 54 49 53 57 59 65 75
71 71 71 77 81 81 77 79 79 78 74 77 82 84 86 84 80 82 77 76 77 70 54 48 57 48 50 48 46 50 52 50 50 51 56 54 49 53 54 55 58 63 64
64 64 65 69 73 73 72 75 79 79 78 80 79 81 84 84 81 81 84 82 77 79 58 57 55 50 53 55 54 55 53 52 54 58 60 54 54 57 57 58 60 60 62
52 50 52 56 63 69 71 72 71 72 72 72 71 81 87 89 86 85 85 83 84 83 62 65 57 50 60 58 55 59 59 59 61 63 61 62 61 59 60 64 65 64 63
42 44 45 47 51 56 63 66 67 69 70 72 73 82 90 89 87 88 91 85 86 81 71 74 60 51 54 58 62 64 64 64 65 68 67 66 62 61 66 68 68 68 70
33 37 37 39 43 47 53 58 62 68 68 69 71 80 85 87 93 95 95 88 82 81 80 80 67 60 60 67 67 68 70 69 72 70 68 68 66 68 72 67 69 68 74
31 30 32 34 35 40 46 51 56 57 60 63 61 67 78 90 92 91 94 93 93 87 84 80 78 75 70 69 70 73 72 71 72 68 69 69 70 72 68 65 69 71 74
33 32 29 29 31 35 40 44 47 48 48 56 56 57 66 69 77 85 92 93 85 79 82 84 85 85 82 76 76 78 80 73 70 67 67 67 69 67 65 65 71 73 70
35 35 37 36 36 36 37 39 41 44 41 44 49 48 52 55 63 63 69 82 77 80 86 91 94 95 91 86 87 88 85 77 65 63 65 65 61 62 67 70 68 62 60
35 33 35 37 37 36 39 38 39 41 42 44 48 50 52 54 56 62 66 75 81 77 85 93 97 97 88 80 79 79 71 65 63 61 56 54 58 62 64 65 60 56 53
38 36 34 33 33 32 31 34 36 36 43 44 41 48 55 52 52 56 61 65 69 75 80 84 83 85 75 67 67 63 58 57 55 51 53 56 56 57 60 58 54 53 52
39 36 32 31 30 31 31 32 33 35 36 36 36 42 41 40 49 55 52 56 65 70 72 72 74 69 61 60 58 55 53 50 50 54 54 52 52 52 49 49 47 46 43
37 36 34 32 31 30 29 29 29 31 32 34 35 36 37 44 46 50 51 48 52 59 61 60 58 58 57 55 53 51 49 50 54 54 51 47 47 43 43 44 43 41 41
38 35 32 31 31 32 32 32 32 33 34 36 36 38 43 50 53 55 56 57 55 53 52 52 53 54 54 53 51 52 54 54 52 47 44 44 42 40 40 40 39 38 38
36 35 34 35 36 36 36 34 35 37 39 40 41 42 45 51 50 52 54 56 55 54 54 55 55 54 54 55 57 57 52 48 44 41 42 41 39 38 38 37 37 37 37
34 35 35 35 37 37 36 36 37 38 38 38 39 40 41 43 45 45 45 45 48 50 51 52 53 55 56 55 52 50 47 43 40 40 40 39 37 37 37 35 36 36 36
33 34 35 35 35 33 32 32 32 32 32 32 32 32 33 36 37 38 39 40 41 43 46 49 50 50 50 50 49 46 42 40 39 40 39 37 35 36 36 35 35 35 34
27 27 27 26 25 24 24 23 23 24 25 26 27 28 29 30 33 35 38 41 42 44 45 46 46 47 48 48 46 44 41 39 38 39 39 36 35 35 35 34 33 33 33
Wind_Direction_500mb
226 230 233 228 227 224 224 224 221 226 229 228 217 210 207 210 209 208 209 207 204 203 200 200 199 194 194 190 194 217 213 207 206 207 228 257 285 300 313 319 323 323 325
224 229 232 231 228 222 224 224 224 228 230 227 220 210 208 209 210 208 207 206 205 203 202 198 194 188 178 199 245 229 216 216 220 229 247 271 291 305 314 319 319 322 325
221 225 229 232 228 225 224 227 229 230 230 224 219 213 210 212 210 207 208 206 204 203 201 196 189 180 219 234 237 224 221 226 235 249 267 285 299 309 313 316 318 321 325
222 225 229 232 230 227 227 227 231 229 229 225 219 215 215 214 212 209 206 204 202 200 195 189 185 218 236 257 231 226 230 237 249 263 276 291 300 306 312 315 317 320 322
224 225 230 232 233 226 226 227 230 229 230 228 222 220 214 213 212 209 206 203 202 197 192 187 200 241 291 239 235 235 240 249 262 273 280 291 298 305 310 314 315 320 321
233 233 232 230 231 228 227 228 230 230 229 226 223 219 212 212 211 210 208 206 204 200 194 192 217 282 251 237 236 240 249 258 269 276 282 289 296 303 307 309 314 319 321
236 233 234 234 233 232 230 230 231 233 233 228 223 215 215 214 208 211 211 207 206 200 197 210 244 272 234 235 238 246 254 263 269 273 281 288 293 301 301 307 312 313 312
239 236 234 234 234 233 230 230 232 232 232 229 223 217 214 210 210 217 215 208 204 201 210 226 253 267 236 240 244 249 258 263 269 278 283 290 293 293 302 309 307 308 310
238 236 236 236 234 233 231 231 231 231 229 228 224 216 212 212 214 217 212 208 204 207 217 236 258 262 237 239 245 255 260 265 270 275 280 283 285 300 306 298 301 308 312
240 240 239 238 237 235 233 232 232 232 231 228 223 214 214 212 214 217 218 211 210 216 220 242 260 259 238 243 248 258 262 267 271 274 276 278 282 290 290 289 301 304 307
242 239 237 238 237 236 234 232 232 230 227 225 222 212 212 212 216 219 222 216 222 224 229 244 258 256 238 241 247 259 264 267 270 272 273 280 285 285 287 294 298 298 300
236 232 231 230 230 228 229 230 230 231 229 226 221 211 210 212 216 220 225 227 229 224 235 250 261 264 253 242 251 262 265 267 270 269 275 282 283 287 293 296 297 297 298
224 223 221 220 221 223 225 226 226 226 224 221 222 217 214 210 213 222 226 227 224 230 237 252 260 265 252 247 255 261 263 265 266 270 276 280 284 288 291 294 294 296 298
212 211 208 211 213 217 222 226 227 226 222 221 221 217 214 211 216 222 223 226 229 231 240 251 256 260 258 253 256 258 261 264 267 272 276 279 281 288 292 291 292 296 299
201 203 205 206 208 215 219 225 224 228 231 225 223 221 217 217 219 222 227 228 233 232 247 253 253 256 260 260 264 265 263 262 265 271 274 276 280 287 288 291 293 296 298
196 191 199 205 207 209 216 219 224 229 232 229 233 236 233 233 232 229 233 235 236 247 247 251 258 259 263 267 270 275 271 264 268 271 273 275 281 284 287 289 293 296 297
210 207 204 203 205 207 213 218 224 225 224 227 234 239 239 240 244 243 243 234 237 259 246 250 255 258 262 268 270 270 270 270 268 270 273 276 276 280 286 289 291 293 295
211 217 219 215 212 212 215 217 221 225 231 226 228 232 235 236 235 240 240 238 244 240 244 249 256 261 263 264 265 264 265 264 271 272 271 271 277 282 286 289 292 294 297
201 204 207 211 214 217 215 217 223 224 228 233 230 230 235 237 241 239 232 235 240 243 245 252 257 258 264 264 262 263 266 268 268 267 271 277 280 284 287 289 292 296 300
195 199 205 204 205 208 211 215 217 224 227 232 227 227 230 232 228 235 239 237 240 244 246 247 251 261 264 262 264 267 266 264 266 271 273 276 283 283 286 289 293 297 300
196 198 198 202 209 213 216 220 224 228 231 234 235 234 237 240 244 245 248 248 249 247 248 253 255 257 259 262 263 262 261 265 270 269 275 279 277 280 282 285 291 297 299
199 203 207 213 218 224 227 227 231 235 239 242 243 242 243 244 244 248 250 249 248 248 248 249 252 255 258 259 260 262 266 266 267 269 271 271 273 276 279 282 287 291 292
208 213 218 224 228 232 235 237 240 242 244 246 248 249 248 251 252 251 250 250 249 248 249 251 252 254 255 258 261 263 263 263 262 262 262 264 268 273 275 278 282 283 286
219 222 226 231 234 235 236 237 239 242 246 248 249 250 249 250 251 249 249 249 247 247 247 250 252 255 257 259 259 259 258 256 255 255 257 260 264 269 273 275 276 278 281
220 220 222 224 228 231 235 239 242 245 249 251 252 251 249 248 247 248 249 250 250 251 252 253 254 256 256 256 255 252 249 250 251 253 255 258 262 266 269 271 272 274 277
215 216 219 223 227 232 236 241 244 244 244 245 246 248 249 250 252 253 253 252 252 253 253 253 252 252 252 251 249 248 248 249 250 252 255 257 260 263 265 267 267 270 272
Wind_Speed_850mb
62 61 61 59 56 59 58 61 62 65 70 79 84 79 76 73 70 72 70 68 65 59 53 47 40 31 24 18 13 14 20 21 18 20 16 13 16 21 26 33 40 44 47
54 56 57 56 55 60 64 66 68 68 72 77 78 75 78 75 75 75 73 68 63 59 53 45 36 27 19 9 12 25 23 20 18 17 17 17 20 26 32 39 46 49 53
53 56 58 59 58 63 66 69 68 70 71 74 79 77 78 76 77 76 71 67 62 55 48 41 33 23 13 13 21 26 24 22 20 18 19 21 28 33 38 46 52 56 58
55 60 63 61 60 62 66 69 68 68 68 72 79 84 80 80 82 79 74 70 63 55 48 40 30 16 15 17 30 28 26 24 23 23 24 26 33 39 44 52 57 58 62
63 66 67 61 60 64 72 74 72 73 74 78 87 89 84 87 83 77 70 62 59 58 54 44 27 15 25 34 32 30 28 26 26 29 29 32 37 42 47 54 59 60 66
65 69 69 67 65 68 74 77 75 76 77 80 86 86 89 88 83 74 67 63 61 56 51 40 23 26 32 42 38 34 32 30 32 35 35 38 40 44 50 55 55 56 69
66 70 74 73 71 69 75 78 76 75 76 79 85 88 89 87 78 70 66 64 61 59 50 40 29 43 41 47 42 39 38 37 39 41 43 42 44 46 53 52 50 60 67
68 72 75 76 77 72 76 80 78 77 77 79 86 90 88 82 76 71 71 67 67 60 51 33 50 40 47 46 43 43 41 45 45 44 47 49 50 51 50 53 60 69 73
71 73 74 77 79 80 76 81 81 79 76 80 86 85 86 84 79 79 78 74 69 62 49 45 54 43 49 47 46 44 47 49 48 48 50 54 54 49 53 57 59 65 75
71 71 71 77 81 81 77 79 79 78 74 77 82 84 86 84 80 82 77 76 77 70 54 48 57 48 50 48 46 50 52 50 50 51 56 54 49 53 54 55 58 63 64
64 64 65 69 73 73 72 75 79 79 78 80 79 81 84 84 81 81 84 82 77 79 58 57 55 50 53 55 54 55 53 52 54 58 60 54 54 57 57 58 60 60 62
52 50 52 56 63 69 71 72 71 72 72 72 71 81 87 89 86 85 85 83 84 83 62 65 57 50 60 58 55 59 59 59 61 63 61 62 61 59 60 64 65 64 63
42 44 45 47 51 56 63 66 67 69 70 72 73 82 90 89 87 88 91 85 86 81 71 74 60 51 54 58 62 64 64 64 65 68 67 66 62 61 66 68 68 68 70
33 37 37 39 43 47 53 58 62 68 68 69 71 80 85 87 93 95 95 88 82 81 80 80 67 60 60 67 67 68 70 69 72 70 68 68 66 68 72 67 69 68 74
31 30 32 34 35 40 46 51 56 57 60 63 61 67 78 90 92 91 94 93 93 87 84 80 78 75 70 69 70 73 72 71 72 68 69 69 70 72 68 65 69 71 74
33 32 29 29 31 35 40 44 47 48 48 56 56 57 66 69 77 85 92 93 85 79 82 84 85 85 82 76 76 78 80 73 70 67 67 67 69 67 65 65 71 73 70
35 35 37 36 36 36 37 39 41 44 41 44 49 48 52 55 63 63 69 82 77 80 86 91 94 95 91 86 87 88 85 77 65 63 65 65 61 62 67 70 68 62 60
35 33 35 37 37 36 39 38 39 41 42 44 48 50 52 54 56 62 66 75 81 77 85 93 97 97 88 80 79 79 71 65 63 61 56 54 58 62 64 65 60 56 53
38 36 34 33 33 32 31 34 36 36 43 44 41 48 55 52 52 56 61 65 69 75 80 84 83 85 75 67 67 63 58 57 55 51 53 56 56 57 60 58 54 53 52
39 36 32 31 30 31 31 32 33 35 36 36 36 42 41 40 49 55 52 56 65 70 72 72 74 69 61 60 58 55 53 50 50 54 54 52 52 52 49 49 47 46 43
37 36 34 32 31 30 29 29 29 31 32 34 35 36 37 44 46 50 51 48 52 59 61 60 58 58 57 55 53 51 49 50 54 54 51 47 47 43 43 44 43 41 41
38 35 32 31 31 32 32 32 32 33 34 36 36 38 43 50 53 55 56 57 55 53 52 52 53 54 54 53 51 52 54 54 52 47 44 44 42 40 40 40 39 38 38
36 35 34 35 36 36 36 34 35 37 39 40 41 42 45 51 50 52 54 56 55 54 54 55 55 54 54 55 57 57 52 48 44 41 42 41 39 38 38 37 37 37 37
34 35 35 35 37 37 36 36 37 38 38 38 39 40 41 43 45 45 45 45 48 50 51 52 53 55 56 55 52 50 47 43 40 40 40 39 37 37 37 35 36 36 36
33 34 35 35 35 33 32 32 32 32 32 32 32 32 33 36 37 38 39 40 41 43 46 49 50 50 50 50 49 46 42 40 39 40 39 37 35 36 36 35 35 35 34
27 27 27 26 25 24 24 23 23 24 25 26 27 28 29 30 33 35 38 41 42 44 45 46 46 47 48 48 46 44 41 39 38 39 39 36 35 35 35 34 33 33 33
Wind_Direction_850mb
226 230 233 228 227 224 224 224 221 226 229 228 217 210 207 210 209 208 209 207 204 203 200 200 199 194 194 190 194 217 213 207 206 207 228 257 285 300 313 319 323 323 325
224 229 232 231 228 222 224 224 224 228 230 227 220 210 208 209 210 208 207 206 205 203 202 198 194 188 178 199 245 229 216 216 220 229 247 271 291 305 314 319 319 322 325
221 225 229 232 228 225 224 227 229 230 230 224 219 213 210 212 210 207 208 206 204 203 201 196 189 180 219 234 237 224 221 226 235 249 267 285 299 309 313 316 318 321 325
222 225 229 232 230 227 227 227 231 229 229 225 219 215 215 214 212 209 206 204 202 200 195 189 185 218 236 257 231 226 230 237 249 263 276 291 300 306 312 315 317 320 322
224 225 230 232 233 226 226 227 230 229 230 228 222 220 214 213 212 209 206 203 202 197 192 187 200 241 291 239 235 235 240 249 262 273 280 291 298 305 310 314 315 320 321
233 233 232 230 231 228 227 228 230 230 229 226 223 219 212 212 211 210 208 206 204 200 194 192 217 282 251 237 236 240 249 258 269 276 282 289 296 303 307 309 314 319 321
236 233 234 234 233 232 230 230 231 233 233 228 223 215 215 214 208 211 211 207 206 200 197 210 244 272 234 235 238 246 254 263 269 273 281 288 293 301 301 307 312 313 312
239 236 234 234 234 233 230 230 232 232 232 229 223 217 214 210 210 217 215 208 204 201 210 226 253 267 236 240 244 249 258 263 269 278 283 290 293 293 302 309 307 308 310
238 236 236 236 234 233 231 231 231 231 229 228 224 216 212 212 214 217 212 208 204 207 217 236 258 262 237 239 245 255 260 265 270 275 280 283 285 300 306 298 301 308 312
240 240 239 238 237 235 233 232 232 232 231 228 223 214 214 212 214 217 218 211 210 216 220 242 260 259 238 243 248 258 262 267 271 274 276 278 282 290 290 289 301 304 307
242 239 237 238 237 236 234 232 232 230 227 225 222 212 212 212 216 219 222 216 222 224 229 244 258 256 238 241 247 259 264 267 270 272 273 280 285 285 287 294 298 298 300
236 232 231 230 230 228 229 230 230 231 229 226 221 211 210 212 216 220 225 227 229 224 235 250 261 264 253 242 251 262 265 267 270 269 275 282 283 287 293 296 297 297 298
224 223 221 220 221 223 225 226 226 226 224 221 222 217 214 210 213 222 226 227 224 230 237 252 260 265 252 247 255 261 263 265 266 270 276 280 284 288 291 294 294 296 298
212 211 208 211 213 217 222 226 227 226 222 221 221 217 214 211 216 222 223 226 229 231 240 251 256 260 258 253 256 258 261 264 267 272 276 279 281 288 292 291 292 296 299
201 203 205 206 208 215 219 225 224 228 231 225 223 221 217 217 219 222 227 228 233 232 247 253 253 256 260 260 264 265 263 262 265 271 274 276 280 287 288 291 293 296 298
196 191 199 205 207 209 216 219 224 229 232 229 233 236 233 233 232 229 233 235 236 247 247 251 258 259 263 267 270 275 271 264 268 271 273 275 281 284 287 289 293 296 297
210 207 204 203 205 207 213 218 224 225 224 227 234 239 239 240 244 243 243 234 237 259 246 250 255 258 262 268 270 270 270 270 268 270 273 276 276 280 286 289 291 293 295
211 217 219 215 212 212 215 217 221 225 231 226 228 232 235 236 235 240 240 238 244 240 244 249 256 261 263 264 265 264 265 264 271 272 271 271 277 282 286 289 292 294 297
201 204 207 211 214 217 215 217 223 224 228 233 230 230 235 237 241 239 232 235 240 243 245 252 257 258 264 264 262 263 266 268 268 267 271 277 280 284 287 289 292 296 300
195 199 205 204 205 208 211 215 217 224 227 232 227 227 230 232 228 235 239 237 240 244 246 247 251 261 264 262 264 267 266 264 266 271 273 276 283 283 286 289 293 297 300
196 198 198 202 209 213 216 220 224 228 231 234 235 234 237 240 244 245 248 248 249 247 248 253 255 257 259 262 263 262 261 265 270 269 275 279 277 280 282 285 291 297 299
199 203 207 213 218 224 227 227 231 235 239 242 243 242 243 244 244 248 250 249 248 248 248 249 252 255 258 259 260 262 266 266 267 269 271 271 273 276 279 282 287 291 292
208 213 218 224 228 232 235 237 240 242 244 246 248 249 248 251 252 251 250 250 249 248 249 251 252 254 255 258 261 263 263 263 262 262 262 264 268 273 275 278 282 283 286
219 222 226 231 234 235 236 237 239 242 246 248 249 250 249 250 251 249 249 249 247 247 247 250 252 255 257 259 259 259 258 256 255 255 257 260 264 269 273 275 276 278 281
220 220 222 224 228 231 235 239 242 245 249 251 252 251 249 248 247 248 249 250 250 251 252 253 254 256 256 256 255 252 249 250 251 253 255 258 262 266 269 271 272 274 277
215 216 219 223 227 232 236 241 244 244 244 245 246 248 249 250 252 253 253 252 252 253 253 253 252 252 252 251 249 248 248 249 250 252 255 257 260 263 265 267 267 270 272